Satellite: ORSTED
Catalog number: 25635
Epoch time:      103003.54247735
Element set:     797 
Inclination:       96.4467 deg
RA of node:         0.8083 deg
Eccentricity:    0.0146358
Arg of perigee:   114.7209 deg
Mean anomaly:     246.9302 deg
Mean motion:   14.44755178 rev/day
Decay rate:    5.8800E-006 rev/day^2
Epoch rev:           20329
Checksum:              315

Satellite: SUNSAT
Catalog number: 25636
Epoch time:      103001.93845697
Element set:     673 
Inclination:       96.4494 deg
RA of node:       358.3444 deg
Eccentricity:    0.0150260
Arg of perigee:   125.8313 deg
Mean anomaly:     235.6950 deg
Mean motion:   14.42910459 rev/day
Decay rate:    3.3100E-006 rev/day^2
Epoch rev:           20294
Checksum:              303

Satellite: UOSAT 12
Catalog number: 25693
Epoch time:      103001.99822444
Element set:     575 
Inclination:       64.5578 deg
RA of node:       156.3791 deg
Eccentricity:    0.0016190
Arg of perigee:   317.4825 deg
Mean anomaly:      42.5021 deg
Mean motion:   14.76328789 rev/day
Decay rate:    4.2599E-006 rev/day^2
Epoch rev:           19923
Checksum:              341

Satellite: FENGYUN 1C
Catalog number: 25730
Epoch time:      103001.95443176
Element set:     751 
Inclination:       98.6374 deg
RA of node:        28.1384 deg
Eccentricity:    0.0015188
Arg of perigee:   136.2105 deg
Mean anomaly:     224.0273 deg
Mean motion:   14.11729563 rev/day
Decay rate:    1.6300E-006 rev/day^2
Epoch rev:           18791
Checksum:              287

Satellite: ASTRA 1H
Catalog number: 25785
Epoch time:      102364.00000000
Element set:     367 
Inclination:        0.0122 deg
RA of node:       319.8851 deg
Eccentricity:    0.0002995
Arg of perigee:    65.1991 deg
Mean anomaly:      92.3410 deg
Mean motion:    1.00273184 rev/day
Decay rate:    1.2799E-006 rev/day^2
Epoch rev:            1299
Checksum:              264

Satellite: TERRA
Catalog number: 25994
Epoch time:      103003.23548530
Element set:     562 
Inclination:       98.2082 deg
RA of node:        80.1580 deg
Eccentricity:    0.0000664
Arg of perigee:   107.5789 deg
Mean anomaly:     252.5470 deg
Mean motion:   14.57155327 rev/day
Decay rate:    3.8299E-006 rev/day^2
Epoch rev:           16192
Checksum:              313

Satellite: JAWSAT
Catalog number: 26061
Epoch time:      103001.56287859
Element set:     730 
Inclination:      100.2134 deg
RA of node:        49.7080 deg
Eccentricity:    0.0035570
Arg of perigee:    56.0440 deg
Mean anomaly:     304.4113 deg
Mean motion:   14.37767352 rev/day
Decay rate:    8.6899E-006 rev/day^2
Epoch rev:           15363
Checksum:              290

Satellite: OPAL
Catalog number: 26063
Epoch time:      103001.67046856
Element set:     690 
Inclination:      100.2187 deg
RA of node:        47.5429 deg
Eccentricity:    0.0037421
Arg of perigee:    61.3660 deg
Mean anomaly:     299.1271 deg
Mean motion:   14.35460096 rev/day
Decay rate:    2.1799E-006 rev/day^2
Epoch rev:           15352
Checksum:              294

Satellite: ASUSAT
Catalog number: 26065
Epoch time:      103001.55852959
Element set:     698 
Inclination:      100.2176 deg
RA of node:        47.5492 deg
Eccentricity:    0.0037851
Arg of perigee:    63.5818 deg
Mean anomaly:     296.9238 deg
Mean motion:   14.35486271 rev/day
Decay rate:    3.1500E-006 rev/day^2
Epoch rev:           15349
Checksum:              322

Satellite: GOES 11
Catalog number: 26352
Epoch time:      103003.47422521
Element set:     957 
Inclination:        0.0416 deg
RA of node:       142.7888 deg
Eccentricity:    0.0004552
Arg of perigee:   129.4138 deg
Mean anomaly:     249.2503 deg
Mean motion:    1.00260078 rev/day
Decay rate:   -4.3000E-007 rev/day^2
Epoch rev:             977
Checksum:              370

Satellite: EUTELSAT W4
Catalog number: 26369
Epoch time:      102365.18880209
Element set:     334 
Inclination:        0.0264 deg
RA of node:         6.8932 deg
Eccentricity:    0.0003444
Arg of perigee:   271.2514 deg
Mean anomaly:     285.3827 deg
Mean motion:    1.00274671 rev/day
Decay rate:    1.6100E-006 rev/day^2
Epoch rev:             955
Checksum:              274

Satellite: FENGYUN 2B
Catalog number: 26382
Epoch time:      103001.90659179
Element set:     761 
Inclination:        0.6868 deg
RA of node:       286.6482 deg
Eccentricity:    0.0000426
Arg of perigee:   204.2313 deg
Mean anomaly:      41.2136 deg
Mean motion:    1.00272208 rev/day
Decay rate:   -3.2699E-006 rev/day^2
Epoch rev:             923
Checksum:              277

Satellite: EUTELSAT W1
Catalog number: 26487
Epoch time:      102365.14877895
Element set:     334 
Inclination:        0.0277 deg
RA of node:       118.3689 deg
Eccentricity:    0.0003899
Arg of perigee:   159.0833 deg
Mean anomaly:     245.4310 deg
Mean motion:    1.00270091 rev/day
Decay rate:    7.4000E-007 rev/day^2
Epoch rev:             852
Checksum:              294

Satellite: ASTRA 2B
Catalog number: 26494
Epoch time:      102364.00000000
Element set:     250 
Inclination:        0.0178 deg
RA of node:       354.5658 deg
Eccentricity:    0.0005000
Arg of perigee:   302.8402 deg
Mean anomaly:     189.0339 deg
Mean motion:    1.00276704 rev/day
Decay rate:    1.5800E-006 rev/day^2
Epoch rev:             841
Checksum:              227

Satellite: NOAA 16
Catalog number: 26536
Epoch time:      103001.95966928
Element set:     149 
Inclination:       98.8958 deg
RA of node:       310.6112 deg
Eccentricity:    0.0011418
Arg of perigee:    82.0248 deg
Mean anomaly:     278.2208 deg
Mean motion:   14.11875225 rev/day
Decay rate:    2.1799E-006 rev/day^2
Epoch rev:           11743
Checksum:              324

Satellite: SAUDISAT 1A
Catalog number: 26545
Epoch time:      103001.80536377
Element set:     392 
Inclination:       64.5566 deg
RA of node:       178.7069 deg
Eccentricity:    0.0055060
Arg of perigee:   246.1414 deg
Mean anomaly:     113.3886 deg
Mean motion:   14.78825475 rev/day
Decay rate:    1.0380E-005 rev/day^2
Epoch rev:           12215
Checksum:              305

Satellite: UNISAT
Catalog number: 26547
Epoch time:      103001.81501062
Element set:     415 
Inclination:       64.5560 deg
RA of node:       181.0874 deg
Eccentricity:    0.0062074
Arg of perigee:   248.7262 deg
Mean anomaly:     110.7138 deg
Mean motion:   14.79493574 rev/day
Decay rate:    1.8110E-005 rev/day^2
Epoch rev:           12212
Checksum:              272

Satellite: TIUNGSAT 1
Catalog number: 26548
Epoch time:      103001.56347027
Element set:     397 
Inclination:       64.5555 deg
RA of node:       172.8690 deg
Eccentricity:    0.0048446
Arg of perigee:   244.6271 deg
Mean anomaly:     114.9794 deg
Mean motion:   14.81071780 rev/day
Decay rate:    1.4039E-005 rev/day^2
Epoch rev:           12226
Checksum:              313

Satellite: SAUDISAT 1B
Catalog number: 26549
Epoch time:      103001.94254358
Element set:     657 
Inclination:       64.5527 deg
RA of node:       182.1567 deg
Eccentricity:    0.0059243
Arg of perigee:   246.9080 deg
Mean anomaly:     112.5766 deg
Mean motion:   14.77771115 rev/day
Decay rate:    1.1310E-005 rev/day^2
Epoch rev:           12210
Checksum:              294

Satellite: AMSAT OSCAR 40
Catalog number: 26609
Epoch time:      102363.51138608
Element set:     299 
Inclination:        7.8703 deg
RA of node:        73.6119 deg
Eccentricity:    0.7931814
Arg of perigee:   127.4932 deg
Mean anomaly:     332.8254 deg
Mean motion:    1.25597485 rev/day
Decay rate:    3.9999E-008 rev/day^2
Epoch rev:             994
Checksum:              352

Satellite: GOES 12
Catalog number: 26871
Epoch time:      103001.44474885
Element set:     750 
Inclination:        0.4305 deg
RA of node:        98.5383 deg
Eccentricity:    0.0001053
Arg of perigee:    59.1542 deg
Mean anomaly:     358.0255 deg
Mean motion:    1.00261102 rev/day
Decay rate:   -8.3999E-007 rev/day^2
Epoch rev:             535
Checksum:              279

Satellite: STARSHINE 3
Catalog number: 26929
Epoch time:      103003.51835838
Element set:     635 
Inclination:       67.0258 deg
RA of node:       118.1927 deg
Eccentricity:    0.0005999
Arg of perigee:   321.5106 deg
Mean anomaly:      38.5653 deg
Mean motion:   15.99182582 rev/day
Decay rate:    3.4613E-003 rev/day^2
Epoch rev:            7149
Checksum:              329

Satellite: PCSAT
Catalog number: 26931
Epoch time:      103001.93547530
Element set:     367 
Inclination:       67.0490 deg
RA of node:        18.2399 deg
Eccentricity:    0.0005471
Arg of perigee:   255.2628 deg
Mean anomaly:     104.7866 deg
Mean motion:   14.29085946 rev/day
Decay rate:    2.8699E-006 rev/day^2
Epoch rev:            6554
Checksum:              331

Satellite: SAPPHIRE
Catalog number: 26932
Epoch time:      103002.19950911
Element set:     361 
Inclination:       67.0566 deg
RA of node:        17.2773 deg
Eccentricity:    0.0006736
Arg of perigee:   239.0845 deg
Mean anomaly:     120.9593 deg
Mean motion:   14.29273385 rev/day
Decay rate:    1.6599E-006 rev/day^2
Epoch rev:            6560
Checksum:              318

Satellite: ENVISAT
Catalog number: 27386
Epoch time:      103003.43729996
Element set:     810 
Inclination:       98.5504 deg
RA of node:        72.6510 deg
Eccentricity:    0.0000993
Arg of perigee:    94.7538 deg
Mean anomaly:     265.3760 deg
Mean motion:   14.32249112 rev/day
Decay rate:    2.0400E-006 rev/day^2
Epoch rev:            4414
Checksum:              292

